Time,TemperatureF,DewpointF,PressureIn,WindDirection,WindDirectionDegrees,WindSpeedMPH,WindSpeedGustMPH,Humidity,HourlyPrecipIn,Conditions,Clouds,dailyrainin,SolarRadiationWatts/m^2,SoftwareType,DateUTC
2013-02-04 00:03:00,55.0,48.0,-100.00,WSW,246,2.0,-999.0,76,0.00,,,-99.99,0.000000,,2013-02-04 05:03:00,
2013-02-04 00:11:00,55.0,48.0,-100.00,WNW,295,1.0,-999.0,77,0.00,,,-99.99,0.000000,,2013-02-04 05:11:00,
2013-02-04 00:22:00,55.0,48.0,-100.00,WNW,295,1.0,-999.0,77,0.00,,,-99.99,0.000000,,2013-02-04 05:22:00,
2013-02-04 00:33:00,54.0,47.0,-100.00,WSW,238,1.0,-999.0,78,0.00,,,-99.99,0.000000,,2013-02-04 05:33:00,
2013-02-04 00:42:00,54.0,48.0,-100.00,West,267,2.0,-999.0,79,0.00,,,-99.99,0.000000,,2013-02-04 05:42:00,
2013-02-04 00:52:00,54.0,48.0,-100.00,West,267,2.0,-999.0,79,0.00,,,-99.99,0.000000,,2013-02-04 05:52:00,
2013-02-04 01:02:00,54.0,48.0,-100.00,NW,306,1.0,-999.0,80,0.00,,,-99.99,0.000000,,2013-02-04 06:02:00,
2013-02-04 01:11:00,53.0,47.0,-100.00,WNW,282,1.0,-999.0,81,0.00,,,-99.99,0.000000,,2013-02-04 06:11:00,
2013-02-04 01:21:00,53.0,47.0,-100.00,WNW,282,1.0,-999.0,81,0.00,,,-99.99,0.000000,,2013-02-04 06:21:00,
2013-02-04 01:32:00,53.0,48.0,-100.00,NW,322,3.0,-999.0,83,0.00,,,-99.99,0.000000,,2013-02-04 06:32:00,
2013-02-04 01:42:00,58.0,49.0,-100.00,NW,314,2.0,-999.0,74,0.00,,,-99.99,0.000000,,2013-02-04 06:42:00,
2013-02-04 01:52:00,58.0,49.0,-100.00,NW,314,2.0,-999.0,74,0.00,,,-99.99,0.000000,,2013-02-04 06:52:00,
2013-02-04 02:02:00,59.0,49.0,-100.00,NW,314,3.0,-999.0,69,0.00,,,-99.99,0.000000,,2013-02-04 07:02:00,
2013-02-04 02:11:00,59.0,48.0,-100.00,NNW,329,3.0,-999.0,68,0.00,,,-99.99,0.000000,,2013-02-04 07:11:00,
2013-02-04 02:21:00,59.0,48.0,-100.00,NNW,329,3.0,-999.0,68,0.00,,,-99.99,0.000000,,2013-02-04 07:21:00,
2013-02-04 02:32:00,58.0,48.0,-100.00,NNW,331,2.0,-999.0,69,0.00,,,-99.99,0.000000,,2013-02-04 07:32:00,
2013-02-04 02:42:00,57.0,48.0,-100.00,NW,306,3.0,-999.0,72,0.00,,,-99.99,0.000000,,2013-02-04 07:42:00,
2013-02-04 02:52:00,57.0,48.0,-100.00,NW,306,3.0,-999.0,72,0.00,,,-99.99,0.000000,,2013-02-04 07:52:00,
2013-02-04 03:01:00,56.0,48.0,-100.00,NW,312,2.0,-999.0,75,0.00,,,-99.99,0.000000,,2013-02-04 08:01:00,
2013-02-04 03:11:00,56.0,48.0,-100.00,NW,317,2.0,-999.0,76,0.00,,,-99.99,0.000000,,2013-02-04 08:11:00,
2013-02-04 03:21:00,56.0,48.0,-100.00,NW,317,2.0,-999.0,76,0.00,,,-99.99,0.000000,,2013-02-04 08:21:00,
2013-02-04 03:31:00,56.0,49.0,-100.00,North,352,3.0,-999.0,76,0.00,,,-99.99,0.000000,,2013-02-04 08:31:00,
2013-02-04 03:42:00,56.0,49.0,-100.00,NNW,339,2.0,-999.0,76,0.00,,,-99.99,0.000000,,2013-02-04 08:42:00,
2013-02-04 03:52:00,56.0,49.0,-100.00,NNW,339,2.0,-999.0,76,0.00,,,-99.99,0.000000,,2013-02-04 08:52:00,
2013-02-04 04:02:00,56.0,49.0,-100.00,North,5,2.0,-999.0,77,0.00,,,-99.99,0.000000,,2013-02-04 09:02:00,
2013-02-04 04:11:00,55.0,49.0,-100.00,NNE,12,2.0,-999.0,78,0.00,,,-99.99,0.000000,,2013-02-04 09:11:00,
2013-02-04 04:21:00,55.0,49.0,-100.00,NNE,12,2.0,-999.0,78,0.00,,,-99.99,0.000000,,2013-02-04 09:21:00,
2013-02-04 04:32:00,55.0,49.0,-100.00,North,9,3.0,-999.0,80,0.00,,,-99.99,0.000000,,2013-02-04 09:32:00,
2013-02-04 04:42:00,54.0,49.0,-100.00,North,4,2.0,-999.0,81,0.00,,,-99.99,0.000000,,2013-02-04 09:42:00,
2013-02-04 04:52:00,54.0,49.0,-100.00,North,4,2.0,-999.0,81,0.00,,,-99.99,0.000000,,2013-02-04 09:52:00,
2013-02-04 05:01:00,54.0,49.0,-100.00,NNW,346,2.0,-999.0,82,0.00,,,-99.99,0.000000,,2013-02-04 10:01:00,
2013-02-04 05:11:00,53.0,48.0,-100.00,North,359,2.0,-999.0,83,0.00,,,-99.99,0.000000,,2013-02-04 10:11:00,
2013-02-04 05:21:00,53.0,48.0,-100.00,North,359,2.0,-999.0,83,0.00,,,-99.99,0.000000,,2013-02-04 10:21:00,
2013-02-04 05:32:00,53.0,48.0,-100.00,North,7,3.0,-999.0,82,0.00,,,-99.99,0.000000,,2013-02-04 10:32:00,
2013-02-04 05:42:00,53.0,47.0,-100.00,North,6,2.0,-999.0,80,0.00,,,-99.99,0.000000,,2013-02-04 10:42:00,
2013-02-04 05:52:00,53.0,47.0,-100.00,North,6,2.0,-999.0,80,0.00,,,-99.99,0.000000,,2013-02-04 10:52:00,
2013-02-04 06:02:00,53.0,46.0,-100.00,North,6,2.0,-999.0,78,0.00,,,-99.99,0.000000,,2013-02-04 11:02:00,
2013-02-04 06:11:00,53.0,45.0,-100.00,North,1,2.0,-999.0,74,0.00,,,-99.99,0.000000,,2013-02-04 11:11:00,
2013-02-04 06:22:00,53.0,45.0,-100.00,North,1,2.0,-999.0,74,0.00,,,-99.99,0.000000,,2013-02-04 11:22:00,
2013-02-04 06:32:00,53.0,44.0,-100.00,North,9,3.0,-999.0,70,0.00,,,-99.99,0.000000,,2013-02-04 11:32:00,
2013-02-04 06:42:00,53.0,42.0,-100.00,NNE,15,2.0,-999.0,68,0.00,,,-99.99,0.000000,,2013-02-04 11:42:00,
2013-02-04 06:52:00,53.0,42.0,-100.00,NNE,15,2.0,-999.0,68,0.00,,,-99.99,0.000000,,2013-02-04 11:52:00,
2013-02-04 07:02:00,52.0,41.0,-100.00,North,0,2.0,-999.0,66,0.00,,,-99.99,0.000000,,2013-02-04 12:02:00,
2013-02-04 07:12:00,51.0,41.0,-100.00,North,1,2.0,-999.0,68,0.00,,,-99.99,0.900000,,2013-02-04 12:12:00,
2013-02-04 07:22:00,51.0,41.0,-100.00,North,1,2.0,-999.0,68,0.00,,,-99.99,0.900000,,2013-02-04 12:22:00,
2013-02-04 07:32:00,51.0,41.0,-100.00,North,356,2.0,-999.0,69,0.00,,,-99.99,6.700000,,2013-02-04 12:32:00,
2013-02-04 07:42:00,51.0,42.0,-100.00,NW,312,2.0,-999.0,68,0.00,,,-99.99,40.200001,,2013-02-04 12:42:00,
2013-02-04 07:53:00,51.0,42.0,-100.00,NW,312,2.0,-999.0,68,0.00,,,-99.99,40.200001,,2013-02-04 12:53:00,
2013-02-04 08:02:00,53.0,43.0,-100.00,NNW,332,1.0,-999.0,69,0.00,,,-99.99,99.900002,,2013-02-04 13:02:00,
2013-02-04 08:12:00,55.0,43.0,-100.00,NNW,347,3.0,-999.0,65,0.00,,,-99.99,159.000000,,2013-02-04 13:12:00,
2013-02-04 08:21:00,55.0,43.0,-100.00,NNW,347,3.0,-999.0,65,0.00,,,-99.99,159.000000,,2013-02-04 13:21:00,
2013-02-04 08:33:00,56.0,44.0,-100.00,North,350,4.0,-999.0,63,0.00,,,-99.99,212.300003,,2013-02-04 13:33:00,
2013-02-04 08:42:00,56.0,43.0,-100.00,North,1,5.0,-999.0,61,0.00,,,-99.99,267.600006,,2013-02-04 13:42:00,
2013-02-04 08:52:00,56.0,43.0,-100.00,North,1,5.0,-999.0,61,0.00,,,-99.99,267.600006,,2013-02-04 13:52:00,
2013-02-04 09:03:00,57.0,43.0,-100.00,North,360,5.0,-999.0,58,0.00,,,-99.99,322.200012,,2013-02-04 14:03:00,
2013-02-04 09:12:00,59.0,43.0,-100.00,NNW,347,4.0,-999.0,55,0.00,,,-99.99,373.600006,,2013-02-04 14:12:00,
2013-02-04 09:22:00,59.0,43.0,-100.00,NNW,347,4.0,-999.0,55,0.00,,,-99.99,373.600006,,2013-02-04 14:22:00,
2013-02-04 09:32:00,60.0,43.0,-100.00,NNW,347,3.0,-999.0,53,0.00,,,-99.99,422.600006,,2013-02-04 14:32:00,
2013-02-04 09:42:00,61.0,42.0,-100.00,NNE,20,3.0,-999.0,50,0.00,,,-99.99,468.700012,,2013-02-04 14:42:00,
2013-02-04 09:52:00,61.0,42.0,-100.00,NNE,20,3.0,-999.0,50,0.00,,,-99.99,468.700012,,2013-02-04 14:52:00,
2013-02-04 10:03:00,63.0,41.0,-100.00,NNE,19,3.0,-999.0,44,0.00,,,-99.99,511.799988,,2013-02-04 15:03:00,
2013-02-04 10:12:00,63.0,40.0,-100.00,NNE,25,3.0,-999.0,42,0.00,,,-99.99,555.000000,,2013-02-04 15:12:00,
2013-02-04 10:23:00,63.0,40.0,-100.00,NNE,25,3.0,-999.0,42,0.00,,,-99.99,555.000000,,2013-02-04 15:23:00,
2013-02-04 10:33:00,65.0,40.0,-100.00,North,356,2.0,-999.0,40,0.00,,,-99.99,593.700012,,2013-02-04 15:33:00,
2013-02-04 10:43:00,66.0,41.0,-100.00,North,356,2.0,-999.0,40,0.00,,,-99.99,630.799988,,2013-02-04 15:43:00,
2013-02-04 10:53:00,66.0,41.0,-100.00,North,356,2.0,-999.0,40,0.00,,,-99.99,630.799988,,2013-02-04 15:53:00,
2013-02-04 11:03:00,67.0,41.0,-100.00,WNW,297,2.0,-999.0,38,0.00,,,-99.99,665.599976,,2013-02-04 16:03:00,
2013-02-04 11:11:00,68.0,42.0,-100.00,WNW,295,2.0,-999.0,38,0.00,,,-99.99,696.299988,,2013-02-04 16:11:00,
2013-02-04 11:22:00,68.0,42.0,-100.00,WNW,295,2.0,-999.0,38,0.00,,,-99.99,696.299988,,2013-02-04 16:22:00,
2013-02-04 11:33:00,69.0,42.0,-100.00,SW,221,2.0,-999.0,37,0.00,,,-99.99,724.000000,,2013-02-04 16:33:00,
2013-02-04 11:42:00,70.0,43.0,-100.00,West,278,4.0,-999.0,37,0.00,,,-99.99,745.000000,,2013-02-04 16:42:00,
2013-02-04 11:52:00,70.0,43.0,-100.00,West,278,4.0,-999.0,37,0.00,,,-99.99,745.000000,,2013-02-04 16:52:00,
2013-02-04 12:02:00,71.0,42.0,-100.00,NW,313,4.0,-999.0,35,0.00,,,-99.99,764.000000,,2013-02-04 17:02:00,
2013-02-04 12:11:00,72.0,43.0,-100.00,WSW,258,3.0,-999.0,35,0.00,,,-99.99,781.000000,,2013-02-04 17:11:00,
2013-02-04 12:21:00,72.0,43.0,-100.00,WSW,258,3.0,-999.0,35,0.00,,,-99.99,781.000000,,2013-02-04 17:21:00,
2013-02-04 12:32:00,71.0,44.0,-100.00,WSW,251,3.0,-999.0,36,0.00,,,-99.99,789.000000,,2013-02-04 17:32:00,
2013-02-04 12:42:00,72.0,44.0,-100.00,WSW,237,3.0,-999.0,37,0.00,,,-99.99,795.000000,,2013-02-04 17:42:00,
2013-02-04 12:52:00,72.0,44.0,-100.00,WSW,237,3.0,-999.0,37,0.00,,,-99.99,795.000000,,2013-02-04 17:52:00,
2013-02-04 13:03:00,73.0,45.0,-100.00,West,280,3.0,-999.0,36,0.00,,,-99.99,763.000000,,2013-02-04 18:03:00,
2013-02-04 13:11:00,74.0,46.0,-100.00,WSW,246,2.0,-999.0,37,0.00,,,-99.99,784.000000,,2013-02-04 18:11:00,
2013-02-04 13:22:00,74.0,46.0,-100.00,WSW,246,2.0,-999.0,37,0.00,,,-99.99,784.000000,,2013-02-04 18:22:00,
2013-02-04 13:32:00,73.0,48.0,-100.00,East,95,3.0,-999.0,40,0.00,,,-99.99,780.000000,,2013-02-04 18:32:00,
2013-02-04 13:42:00,74.0,50.0,-100.00,ESE,116,4.0,-999.0,42,0.00,,,-99.99,813.000000,,2013-02-04 18:42:00,
2013-02-04 13:52:00,74.0,50.0,-100.00,ESE,116,4.0,-999.0,42,0.00,,,-99.99,813.000000,,2013-02-04 18:52:00,
2013-02-04 14:02:00,75.0,52.0,-100.00,SSE,168,8.0,-999.0,44,0.00,,,-99.99,806.000000,,2013-02-04 19:02:00,
2013-02-04 14:11:00,73.0,52.0,-100.00,SE,144,8.0,-999.0,47,0.00,,,-99.99,451.100006,,2013-02-04 19:11:00,
2013-02-04 14:22:00,73.0,52.0,-100.00,SE,144,8.0,-999.0,47,0.00,,,-99.99,451.100006,,2013-02-04 19:22:00,
2013-02-04 14:32:00,73.0,52.0,-100.00,SE,141,8.0,-999.0,48,0.00,,,-99.99,669.400024,,2013-02-04 19:32:00,
2013-02-04 14:42:00,72.0,52.0,-100.00,SE,136,7.0,-999.0,49,0.00,,,-99.99,454.600006,,2013-02-04 19:42:00,
2013-02-04 14:52:00,72.0,52.0,-100.00,SE,136,7.0,-999.0,49,0.00,,,-99.99,454.600006,,2013-02-04 19:52:00,
2013-02-04 15:02:00,73.0,53.0,-100.00,SE,143,7.0,-999.0,49,0.00,,,-99.99,514.500000,,2013-02-04 20:02:00,
2013-02-04 15:12:00,73.0,53.0,-100.00,SE,126,8.0,-999.0,50,0.00,,,-99.99,658.599976,,2013-02-04 20:12:00,
2013-02-04 15:22:00,73.0,53.0,-100.00,SE,126,8.0,-999.0,50,0.00,,,-99.99,658.599976,,2013-02-04 20:22:00,
2013-02-04 15:32:00,72.0,53.0,-100.00,SE,134,7.0,-999.0,52,0.00,,,-99.99,278.299988,,2013-02-04 20:32:00,
2013-02-04 15:42:00,72.0,54.0,-100.00,SE,124,7.0,-999.0,52,0.00,,,-99.99,341.000000,,2013-02-04 20:42:00,
2013-02-04 15:52:00,72.0,54.0,-100.00,SE,124,7.0,-999.0,52,0.00,,,-99.99,341.000000,,2013-02-04 20:52:00,
2013-02-04 16:02:00,72.0,54.0,-100.00,SE,142,6.0,-999.0,54,0.00,,,-99.99,209.899994,,2013-02-04 21:02:00,
2013-02-04 16:12:00,71.0,54.0,-100.00,SE,138,5.0,-999.0,54,0.00,,,-99.99,227.199997,,2013-02-04 21:12:00,
2013-02-04 16:22:00,71.0,54.0,-100.00,SE,138,5.0,-999.0,54,0.00,,,-99.99,227.199997,,2013-02-04 21:22:00,
2013-02-04 16:32:00,72.0,54.0,-100.00,SSE,148,6.0,-999.0,53,0.00,,,-99.99,215.399994,,2013-02-04 21:32:00,
2013-02-04 16:43:00,72.0,54.0,-100.00,SE,131,5.0,-999.0,54,0.00,,,-99.99,223.199997,,2013-02-04 21:43:00,
2013-02-04 16:52:00,72.0,54.0,-100.00,SE,131,5.0,-999.0,54,0.00,,,-99.99,223.199997,,2013-02-04 21:52:00,
2013-02-04 17:02:00,73.0,54.0,-100.00,SE,139,6.0,-999.0,52,0.00,,,-99.99,322.899994,,2013-02-04 22:02:00,
2013-02-04 17:12:00,72.0,54.0,-100.00,SSE,162,6.0,-999.0,51,0.00,,,-99.99,198.600006,,2013-02-04 22:12:00,
2013-02-04 17:21:00,72.0,54.0,-100.00,SSE,162,6.0,-999.0,51,0.00,,,-99.99,198.600006,,2013-02-04 22:21:00,
2013-02-04 17:32:00,71.0,54.0,-100.00,SE,142,7.0,-999.0,54,0.00,,,-99.99,54.299999,,2013-02-04 22:32:00,
2013-02-04 17:42:00,71.0,55.0,-100.00,SE,129,6.0,-999.0,57,0.00,,,-99.99,43.000000,,2013-02-04 22:42:00,
2013-02-04 17:52:00,71.0,55.0,-100.00,SE,129,6.0,-999.0,57,0.00,,,-99.99,43.000000,,2013-02-04 22:52:00,
2013-02-04 18:01:00,71.0,55.0,-100.00,SE,134,6.0,-999.0,58,0.00,,,-99.99,28.100000,,2013-02-04 23:01:00,
2013-02-04 18:11:00,70.0,55.0,-100.00,SE,124,5.0,-999.0,59,0.00,,,-99.99,23.900000,,2013-02-04 23:11:00,
2013-02-04 18:21:00,70.0,55.0,-100.00,SE,124,5.0,-999.0,59,0.00,,,-99.99,23.900000,,2013-02-04 23:21:00,
2013-02-04 18:32:00,70.0,55.0,-100.00,ESE,118,5.0,-999.0,60,0.00,,,-99.99,4.300000,,2013-02-04 23:32:00,
2013-02-04 18:42:00,69.0,55.0,-100.00,SE,127,4.0,-999.0,61,0.00,,,-99.99,0.100000,,2013-02-04 23:42:00,
2013-02-04 18:52:00,69.0,55.0,-100.00,SE,127,4.0,-999.0,61,0.00,,,-99.99,0.100000,,2013-02-04 23:52:00,
2013-02-04 19:02:00,70.0,55.0,-100.00,SSE,155,3.0,-999.0,58,0.00,,,-99.99,0.000000,,2013-02-05 00:02:00,
2013-02-04 19:11:00,70.0,54.0,-100.00,South,171,3.0,-999.0,57,0.00,,,-99.99,0.000000,,2013-02-05 00:11:00,
2013-02-04 19:22:00,70.0,54.0,-100.00,South,171,3.0,-999.0,57,0.00,,,-99.99,0.000000,,2013-02-05 00:22:00,
2013-02-04 19:32:00,69.0,54.0,-100.00,SSE,156,3.0,-999.0,58,0.00,,,-99.99,0.000000,,2013-02-05 00:32:00,
2013-02-04 19:42:00,69.0,54.0,-100.00,SSE,153,3.0,-999.0,58,0.00,,,-99.99,0.000000,,2013-02-05 00:42:00,
2013-02-04 19:52:00,69.0,54.0,-100.00,SSE,153,3.0,-999.0,58,0.00,,,-99.99,0.000000,,2013-02-05 00:52:00,
2013-02-04 20:02:00,68.0,53.0,-100.00,SSE,162,2.0,-999.0,59,0.00,,,-99.99,0.000000,,2013-02-05 01:02:00,
2013-02-04 20:12:00,66.0,53.0,-100.00,South,190,1.0,-999.0,63,0.00,,,-99.99,0.000000,,2013-02-05 01:12:00,
2013-02-04 20:22:00,66.0,53.0,-100.00,South,190,1.0,-999.0,63,0.00,,,-99.99,0.000000,,2013-02-05 01:22:00,
2013-02-04 20:32:00,64.0,54.0,-100.00,SSW,212,1.0,-999.0,68,0.00,,,-99.99,0.000000,,2013-02-05 01:32:00,
2013-02-04 20:42:00,62.0,53.0,-100.00,SSW,212,1.0,-999.0,71,0.00,,,-99.99,0.000000,,2013-02-05 01:42:00,
2013-02-04 20:52:00,62.0,53.0,-100.00,SSW,212,1.0,-999.0,71,0.00,,,-99.99,0.000000,,2013-02-05 01:52:00,
2013-02-04 21:01:00,62.0,53.0,-100.00,SSW,193,2.0,-999.0,73,0.00,,,-99.99,0.000000,,2013-02-05 02:01:00,
2013-02-04 21:11:00,62.0,53.0,-100.00,South,180,1.0,-999.0,73,0.00,,,-99.99,0.000000,,2013-02-05 02:11:00,
2013-02-04 21:22:00,62.0,53.0,-100.00,South,180,1.0,-999.0,73,0.00,,,-99.99,0.000000,,2013-02-05 02:22:00,
2013-02-04 21:32:00,61.0,53.0,-100.00,SSE,154,1.0,-999.0,73,0.00,,,-99.99,0.000000,,2013-02-05 02:32:00,
2013-02-04 21:42:00,60.0,52.0,-100.00,SSE,166,1.0,-999.0,74,0.00,,,-99.99,0.000000,,2013-02-05 02:42:00,
2013-02-04 21:52:00,60.0,52.0,-100.00,SSE,166,1.0,-999.0,74,0.00,,,-99.99,0.000000,,2013-02-05 02:52:00,
2013-02-04 22:02:00,60.0,52.0,-100.00,SSE,161,2.0,-999.0,75,0.00,,,-99.99,0.000000,,2013-02-05 03:02:00,
2013-02-04 22:11:00,61.0,53.0,-100.00,SSE,157,3.0,-999.0,75,0.00,,,-99.99,0.000000,,2013-02-05 03:11:00,
2013-02-04 22:21:00,61.0,53.0,-100.00,SSE,157,3.0,-999.0,75,0.00,,,-99.99,0.000000,,2013-02-05 03:21:00,
2013-02-04 22:32:00,61.0,53.0,-100.00,SSE,164,3.0,-999.0,74,0.00,,,-99.99,0.000000,,2013-02-05 03:32:00,
2013-02-04 22:42:00,62.0,53.0,-100.00,SE,142,2.0,-999.0,73,0.00,,,-99.99,0.000000,,2013-02-05 03:42:00,
2013-02-04 22:52:00,62.0,53.0,-100.00,SE,142,2.0,-999.0,73,0.00,,,-99.99,0.000000,,2013-02-05 03:52:00,
2013-02-04 23:01:00,61.0,52.0,-100.00,SSE,150,1.0,-999.0,73,0.00,,,-99.99,0.000000,,2013-02-05 04:01:00,
2013-02-04 23:11:00,61.0,53.0,-100.00,SW,231,1.0,-999.0,76,0.00,,,-99.99,0.000000,,2013-02-05 04:11:00,
2013-02-04 23:21:00,61.0,53.0,-100.00,SW,231,1.0,-999.0,76,0.00,,,-99.99,0.000000,,2013-02-05 04:21:00,
2013-02-04 23:32:00,60.0,53.0,-100.00,West,275,1.0,-999.0,77,0.00,,,-99.99,0.000000,,2013-02-05 04:32:00,
2013-02-04 23:42:00,59.0,53.0,-100.00,WSW,247,0.0,-999.0,79,0.00,,,-99.99,0.000000,,2013-02-05 04:42:00,
2013-02-04 23:52:00,59.0,53.0,-100.00,WSW,247,0.0,-999.0,79,0.00,,,-99.99,0.000000,,2013-02-05 04:52:00,